Location: Bittelbronn
(48.4454°N, 8.5870°E)
Time: 17:28:18
(UTC+00:00)

Cosmos 1346 Rocket - Pass Details

Date: 23 May 2024
Orbit: 508 x 521 km, 81.2° (Epoch: 16 June)

Event Time Altitude Azimuth Distance (km) Brightness Sun altitude
Rises 00:39:19 0° 344° (NNW) 2,661 7.2 -18.8°
Reaches altitude 10° 00:41:30 10° 339° (NNW) 1,769 6.1 -18.7°
Maximum altitude 00:45:17 53° 263° (W) 652 3.0 -18.5°
Enters shadow 00:45:57 46° 225° (SW) 714 2.9 -18.4°
